Location: Highland Meadows Observing Site
(48.4428°N, 114.5461°W)
Time: 18:00:55
(UTC-06:00)

Amateur Radio Satellites - All Passes

Search period start: 28 May 2016 17:30
Search period end: 29 May 2016 17:30
Location: Highland Meadows Observing Site, 48.4428°N, 114.5461°W

Satellite Date Start Highest point End Downlink Frequencies (MHz)
Time Altitude Azimuth
HORYU 2 28 May 17:31:55 17:36:21 83° 256° (WSW) 17:40:48 437.375
SWISSCUBE 28 May 17:34:30 17:37:52 19° 301° (WNW) 17:41:14 437.505
STARS 28 May 17:36:38 17:40:50 44° 99° (E) 17:45:01 437.465
ITUPSAT 1 28 May 17:41:18 17:44:37 19° 301° (WNW) 17:47:56 437.325
Cosmos 2504 28 May 17:41:48 17:48:08 33° 84° (E) 17:54:48 435.465 / 435.565
PCSat 28 May 17:43:49 17:48:17 25° 36° (NE) 17:52:44 145.827
NOAA 15 28 May 18:00:14 18:05:15 43° 66° (ENE) 18:10:16 137.62
BEESAT 3 28 May 18:03:51 18:04:02 10° 18° (NNE) 18:04:13 437.485
BEESAT 28 May 18:05:13 18:07:09 12° 306° (NW) 18:09:05 436.000
LilacSat-2 28 May 18:06:09 18:09:07 22° 65° (ENE) 18:12:05 437.200
Cubesat XI-IV 28 May 18:09:19 18:14:08 36° 64° (ENE) 18:18:59 437.490
BRITE-PL 28 May 18:14:20 18:19:41 44° 68° (ENE) 18:25:02 437.365/2234.400
NOAA 18 28 May 18:16:21 18:21:37 51° 67° (ENE) 18:26:54 137.9125
GOMX 1 28 May 18:33:49 18:38:39 34° 66° (ENE) 18:43:23 467.674
O/OREOS (USA 219) 28 May 18:38:40 18:42:13 22° 49° (NE) 18:45:44 437.305
KKS-1 28 May 18:40:50 18:44:30 26° 296° (WNW) 18:48:09 437.445
CUTE-I 28 May 18:54:37 18:59:55 83° 74° (ENE) 19:05:16 437.470
CUBESAT XI-V 28 May 18:55:14 18:59:52 53° 99° (E) 19:04:27 437.345
MOZHAYETS 4 28 May 19:04:46 19:08:15 21° 298° (WNW) 19:11:44
BEESAT 2 28 May 19:07:27 19:09:52 15° 28° (NNE) 19:12:18 435.950
STARS 28 May 19:13:32 19:16:58 23° 298° (WNW) 19:20:22 437.465
DOVE 4 28 May 19:16:51 19:21:38 39° 68° (ENE) 19:26:13 437.250
YUBILEINY 28 May 19:19:24 19:26:31 27° 300° (WNW) 19:33:41 435.215
CANX-2 28 May 19:19:36 19:21:42 14° 59° (ENE) 19:23:49 2200.000
PCSat 28 May 19:26:52 19:32:20 82° 238° (WSW) 19:37:45 145.827
RS-15 28 May 19:27:25 19:38:56 80° 311° (NW) 19:51:09 29.354- 29.394
AUBIESAT-1 28 May 19:28:17 19:31:29 24° 60° (ENE) 19:34:30 437.475
HO-68 28 May 19:32:16 19:38:37 36° 58° (ENE) 19:44:59 435.675
Cosmos 2504 28 May 19:34:01 19:41:08 55° 287° (WNW) 19:48:45 435.465 / 435.565
M-CUBED/EXP-1 PRIME 28 May 19:35:32 19:39:12 33° 63° (ENE) 19:42:36 437.505
BEESAT 3 28 May 19:39:23 19:42:57 31° 41° (NE) 19:46:30 437.485
LilacSat-2 28 May 19:39:48 19:43:16 34° 263° (W) 19:46:46 437.200
CINEMA 3 28 May 19:40:06 19:43:38 22° 63° (ENE) 19:47:03 145.822/145.860
NOAA 15 28 May 19:40:28 19:45:09 31° 265° (W) 19:49:52 137.62
CUTE 1.7 + AOD 2 28 May 19:45:23 19:48:31 21° 63° (ENE) 19:51:41 437.475
Cubesat XI-IV 28 May 19:49:19 19:54:12 37° 263° (W) 19:59:08 437.490
BRITE-PL 28 May 19:53:06 19:58:13 34° 266° (W) 20:03:23 437.365/2234.400
NOAA 18 28 May 19:58:00 20:02:33 27° 266° (W) 20:07:08 137.9125
COMPASS 1 28 May 20:02:59 20:05:42 17° 61° (ENE) 20:08:28 437.405
AAUSAT CUBESAT 2 28 May 20:04:44 20:07:06 15° 60° (ENE) 20:09:28 437.432
GOMX 1 28 May 20:11:28 20:16:38 42° 263° (W) 20:21:41 467.674
O/OREOS (USA 219) 28 May 20:17:34 20:21:58 55° 249° (WSW) 20:26:18 437.305
CUBEBUG 2 28 May 20:21:57 20:24:54 18° 62° (ENE) 20:27:48 437.445
CUBESAT XI-V 28 May 20:33:17 20:36:55 22° 298° (WNW) 20:40:32 437.345
CUTE-I 28 May 20:37:31 20:40:40 16° 272° (W) 20:43:48 437.470
STRAND 1 28 May 20:42:40 20:47:42 50° 100° (E) 20:52:42 437.568
BEESAT 2 28 May 20:44:28 20:48:28 67° 49° (NE) 20:52:26 435.950
UWE-3 28 May 20:47:27 20:50:44 22° 64° (ENE) 20:54:01 435.000/436.395/437.385
FUNcube-1 28 May 20:48:56 20:51:25 16° 61° (ENE) 20:53:54 145.935
CANX-2 28 May 20:52:47 20:56:59 78° 258° (WSW) 21:01:15 2200.000
SEEDS 28 May 20:52:56 20:57:05 70° 74° (ENE) 21:01:18 437.485
DOVE 4 28 May 20:54:46 20:59:22 32° 265° (W) 21:03:50 437.250
AUBIESAT-1 28 May 21:02:10 21:05:53 35° 256° (WSW) 21:09:22 437.475
M-CUBED/EXP-1 PRIME 28 May 21:10:23 21:13:48 25° 258° (WSW) 21:17:01 437.505
PCSat 28 May 21:12:09 21:14:52 14° 257° (WSW) 21:17:36 145.827
CINEMA 3 28 May 21:15:57 21:20:31 50° 261° (W) 21:24:54 145.822/145.860
BEESAT 3 28 May 21:17:02 21:20:42 37° 240° (WSW) 21:24:21 437.485
GONETS M04 28 May 21:17:11 21:23:30 23° 77° (ENE) 21:29:46
HO-68 28 May 21:19:05 21:26:04 57° 258° (WSW) 21:33:08 435.675
CUTE 1.7 + AOD 2 28 May 21:20:02 21:24:05 46° 261° (W) 21:28:10 437.475
AIST 2 28 May 21:26:54 21:30:11 22° 34° (NE) 21:33:26 435.215
Oscar 11 28 May 21:28:58 21:33:02 43° 70° (ENE) 21:37:08 145.826/435.025
Cosmos 2504 28 May 21:33:37 21:36:46 13° 313° (NW) 21:40:00 435.465 / 435.565
PRISM 28 May 21:36:37 21:40:23 32° 97° (E) 21:44:07 437.425
COMPASS 1 28 May 21:36:48 21:40:53 56° 259° (W) 21:45:01 437.405
AAUSAT CUBESAT 2 28 May 21:37:58 21:42:05 68° 258° (WSW) 21:46:15 437.432
RS-15 28 May 21:42:34 21:53:30 41° 341° (NNW) 22:04:54 29.354- 29.394
HUMSAT D 28 May 21:44:24 21:46:53 16° 61° (ENE) 21:49:23 437.325/437.525
ZACube-1 28 May 21:45:43 21:49:50 56° 72° (ENE) 21:53:55 437.345
AIST 1 28 May 21:47:08 21:51:19 45° 93° (E) 21:55:33
CUBEBUG 2 28 May 21:56:56 22:01:12 55° 260° (W) 22:05:22 437.445
DELFI C3 28 May 21:57:29 22:01:12 40° 70° (ENE) 22:04:58 145.870
Cosmos 2499 28 May 22:13:04 22:18:57 27° 80° (E) 22:25:09 435.465 / 435.565
CUSAT 1 28 May 22:16:37 22:23:40 34° 62° (ENE) 22:29:47 437.405
DANDE 28 May 22:21:55 22:28:37 25° 56° (NE) 22:35:01 436.750
STRAND 1 28 May 22:22:22 22:26:37 27° 298° (WNW) 22:30:52 437.568
UWE-3 28 May 22:22:57 22:27:01 41° 262° (W) 22:31:01 435.000/436.395/437.385
FUNcube-1 28 May 22:23:04 22:27:13 64° 258° (WSW) 22:31:22 145.935
BEESAT 2 28 May 22:23:27 22:25:50 15° 248° (WSW) 22:28:14 435.950
ISS 28 May 22:28:33 22:31:36 36° 146° (SSE) 22:34:39 145.825
SEEDS 28 May 22:31:19 22:33:18 13° 272° (W) 22:35:17 437.485
AISAT 28 May 22:39:45 22:41:11 11° 55° (NE) 22:42:36 437.250
UNISAT 6 28 May 23:00:54 23:03:38 16° 90° (E) 23:06:22 437.425
AIST 2 28 May 23:04:57 23:09:06 71° 235° (SW) 23:13:13 435.215
Oscar 11 28 May 23:06:03 23:09:23 22° 268° (W) 23:12:43 145.826/435.025
TIGRISAT 28 May 23:07:48 23:10:46 18° 91° (E) 23:13:44 435.000
GONETS M04 28 May 23:10:19 23:19:09 89° 280° (W) 23:27:58
PRISM 28 May 23:12:02 23:15:38 28° 295° (WNW) 23:19:13 437.425
HO-68 28 May 23:14:30 23:15:24 10° 279° (W) 23:16:19 435.675
HUMSAT D 28 May 23:18:04 23:22:05 60° 259° (W) 23:26:09 437.325/437.525
ESTCUBE 1 28 May 23:20:29 23:24:32 33° 66° (ENE) 23:28:37 437.505/2401.250
ZACube-1 28 May 23:23:53 23:26:29 16° 270° (W) 23:29:05 437.345
AIST 1 28 May 23:25:48 23:29:10 21° 292° (WNW) 23:32:33
CUBEBUG 1 28 May 23:26:19 23:30:03 27° 65° (ENE) 23:33:48 437.445
DX 1 28 May 23:27:04 23:30:35 24° 63° (ENE) 23:34:06 434.975-435.025
DELFI C3 28 May 23:33:17 23:36:15 20° 268° (W) 23:39:15 145.870
VELOX 1 28 May 23:36:41 23:40:42 33° 66° (ENE) 23:44:43 145.980
PHONESAT 2.4 28 May 23:39:36 23:41:36 16° 168° (SSE) 23:43:37 2401.200-2431.200
ANTELSAT 28 May 23:41:07 23:45:11 39° 98° (E) 23:49:16 437.575/2403.000
SPROUT 28 May 23:47:43 23:50:43 19° 62° (ENE) 23:53:43 437.525
50 SAT 28 May 23:49:27 23:52:54 42° 71° (ENE) 23:56:24 437.505
CUSAT 1 28 May 23:58:38 00:06:22 62° 266° (W) 00:12:50 437.405
RS-15 28 May 23:58:45 00:09:53 39° 15° (NNE) 00:21:15 29.354- 29.394
Cosmos 2499 29 May 00:03:58 00:11:16 70° 283° (WNW) 00:19:13 435.465 / 435.565
DANDE 29 May 00:04:13 00:12:45 85° 78° (ENE) 00:20:31 436.750
ISS 29 May 00:04:43 00:07:58 61° 345° (NNW) 00:11:13 145.825
POPSAT HIP 1 29 May 00:04:46 00:07:01 14° 89° (E) 00:09:15 437.405
QB50P1 29 May 00:04:58 00:07:17 14° 89° (E) 00:09:35 145.935-145.965
QB50P2 29 May 00:07:31 00:10:10 16° 90° (E) 00:12:48 145.880/145.840
TISAT 1 29 May 00:09:41 00:09:55 10° 55° (NE) 00:10:10 437.305
POLYITAN 1 29 May 00:09:57 00:12:38 16° 90° (E) 00:15:19 437.675
SO-50 29 May 00:11:36 00:14:32 16° 110° (ESE) 00:17:29 436.795
AISAT 29 May 00:12:25 00:16:53 76° 74° (ENE) 00:21:22 437.250
UKube-1 29 May 00:12:46 00:16:59 52° 70° (ENE) 00:21:13 .
NANOSAT C BR1 29 May 00:21:56 00:25:05 20° 92° (E) 00:28:12 145.865
UNISAT 6 29 May 00:36:30 00:40:43 58° 288° (WNW) 00:45:00 437.425
TIGRISAT 29 May 00:43:35 00:47:46 52° 289° (WNW) 00:51:58 435.000
ESTCUBE 1 29 May 00:57:20 01:01:21 31° 265° (W) 01:05:24 437.505/2401.250
DUCHIFAT 1 29 May 00:59:13 01:03:14 45° 99° (E) 01:07:15 145.980
CUBEBUG 1 29 May 01:02:05 01:06:13 37° 263° (W) 01:10:22 437.445
DX 1 29 May 01:02:24 01:06:34 42° 261° (W) 01:10:46 434.975-435.025
GONETS M04 29 May 01:10:32 01:17:19 24° 302° (WNW) 01:24:08
BUGSAT 1 29 May 01:11:33 01:15:06 29° 95° (E) 01:18:37 437.445
VELOX 1 29 May 01:13:14 01:17:10 30° 264° (W) 01:21:08 145.980
PHONESAT 2.4 29 May 01:15:25 01:17:43 19° 184° (S) 01:20:01 2401.200-2431.200
ANTELSAT 29 May 01:18:14 01:21:44 25° 296° (WNW) 01:25:15 437.575/2403.000
SPROUT 29 May 01:22:06 01:26:19 54° 260° (W) 01:30:33 437.525
50 SAT 29 May 01:24:33 01:26:52 16° 269° (W) 01:29:13 437.505
SWISSCUBE 29 May 01:30:09 01:33:16 18° 58° (ENE) 01:36:24 437.505
YUBILEINY 29 May 01:30:44 01:34:24 13° 45° (NE) 01:38:05 435.215
ITUPSAT 1 29 May 01:37:01 01:40:13 18° 58° (ENE) 01:43:26 437.325
POPSAT HIP 1 29 May 01:39:04 01:43:15 65° 288° (WNW) 01:47:24 437.405
QB50P1 29 May 01:39:19 01:43:30 63° 287° (WNW) 01:47:38 145.935-145.965
TISAT 1 29 May 01:40:36 01:44:48 73° 75° (ENE) 01:49:02 437.305
ISS 29 May 01:41:31 01:44:42 47° 5° (N) 01:47:53 145.825
QB50P2 29 May 01:42:12 01:46:20 56° 288° (WNW) 01:50:27 145.880/145.840
CUSAT 1 29 May 01:43:24 01:46:42 13° 288° (WNW) 01:49:50 437.405
POLYITAN 1 29 May 01:44:41 01:48:48 55° 288° (WNW) 01:52:54 437.675
DANDE 29 May 01:48:09 01:54:39 26° 280° (W) 02:00:46 436.750
SO-50 29 May 01:49:29 01:54:25 87° 313° (NW) 01:59:20 436.795
UKube-1 29 May 01:50:18 01:53:20 18° 268° (W) 01:56:24 .
AISAT 29 May 01:51:42 01:53:55 13° 272° (W) 01:56:08 437.250
NANOSAT C BR1 29 May 01:57:02 02:01:02 43° 290° (WNW) 02:05:00 145.865
BEESAT 29 May 01:58:35 02:02:34 27° 63° (ENE) 02:06:34 436.000
Cosmos 2499 29 May 02:01:36 02:06:14 17° 308° (NW) 02:11:04 435.465 / 435.565
JAS-2 29 May 02:06:02 02:13:17 48° 96° (E) 02:19:46 435.910
RS-15 29 May 02:12:32 02:24:49 73° 45° (NE) 02:37:11 29.354- 29.394
DUCHIFAT 1 29 May 02:35:32 02:38:41 21° 297° (WNW) 02:41:49 145.980
BUGSAT 1 29 May 02:46:58 02:50:28 28° 294° (WNW) 02:53:56 437.445
PHONESAT 2.4 29 May 02:53:02 02:53:45 11° 201° (SSW) 02:54:28 2401.200-2431.200
Oscar 19 29 May 02:56:23 03:01:27 53° 100° (E) 03:06:28 437.125/150
MOZHAYETS 4 29 May 02:58:40 03:00:18 12° 55° (NE) 03:01:57
SWISSCUBE 29 May 03:05:47 03:10:32 73° 257° (WSW) 03:15:19 437.505
ITUPSAT 1 29 May 03:12:48 03:17:33 70° 257° (WSW) 03:22:21 437.325
ISS 29 May 03:18:02 03:21:18 74° 205° (SSW) 03:24:33 145.825
TISAT 1 29 May 03:19:07 03:20:59 13° 272° (W) 03:22:51 437.305
YUBILEINY 29 May 03:25:25 03:33:54 50° 71° (ENE) 03:42:21 435.215
Cosmos 2504 29 May 03:28:09 03:33:46 19° 55° (NE) 03:39:32 435.465 / 435.565
Gurwin Techsat 1B 29 May 03:31:31 03:36:40 48° 99° (E) 03:41:48 435.225
SO-50 29 May 03:31:41 03:35:34 23° 330° (NNW) 03:39:26 436.795
AO-7 29 May 03:33:17 03:36:32 12° 82° (E) 03:39:46 29.400- 29.500
BEESAT 29 May 03:35:41 03:40:11 42° 261° (W) 03:44:44 436.000
ITAMSAT 1 29 May 03:41:47 03:46:04 25° 93° (E) 03:50:20 435.822/435.867
JAS-2 29 May 03:51:11 03:58:13 43° 298° (WNW) 04:04:35 435.910
KKS-1 29 May 04:05:14 04:09:37 58° 71° (ENE) 04:14:02 437.445
RS-15 29 May 04:25:34 04:36:44 44° 251° (WSW) 04:47:55 29.354- 29.394
Cosmos 2491 29 May 04:25:36 04:33:55 48° 88° (E) 04:42:14 435.465 / 435.565
CUBESAT XI-V 29 May 04:28:04 04:29:56 12° 55° (NE) 04:31:49 437.345
MOZHAYETS 4 29 May 04:32:09 04:36:41 77° 76° (ENE) 04:41:17
Oscar 19 29 May 04:36:17 04:40:29 26° 299° (WNW) 04:44:38 437.125/150
STARS 29 May 04:36:33 04:40:54 64° 73° (ENE) 04:45:17 437.465
ISS 29 May 04:55:20 04:57:18 15° 223° (SW) 04:59:15 145.825
Gurwin Techsat 1B 29 May 05:11:54 05:16:25 29° 298° (WNW) 05:20:55 435.225
SO-50 29 May 05:15:57 05:17:49 12° 354° (N) 05:19:41 436.795
Cosmos 2504 29 May 05:20:21 05:28:46 71° 78° (ENE) 05:37:34 435.465 / 435.565
HORYU 2 29 May 05:20:26 05:22:51 14° 89° (E) 05:25:16 437.375
ITAMSAT 1 29 May 05:20:45 05:25:49 52° 292° (WNW) 05:30:52 435.822/435.867
YUBILEINY 29 May 05:22:32 05:30:37 44° 273° (W) 05:38:43 435.215
AO-7 29 May 05:22:50 05:31:08 60° 104° (ESE) 05:39:22 29.400- 29.500
AO-85 29 May 05:37:39 05:40:56 16° 109° (ESE) 05:44:10 145.980
JAS-2 29 May 05:38:39 05:41:12 12° 321° (NW) 05:43:42 435.910
KKS-1 29 May 05:43:35 05:46:34 17° 269° (W) 05:49:33 437.445
CUBESAT XI-V 29 May 06:01:51 06:06:31 77° 74° (ENE) 06:11:16 437.345
MOZHAYETS 4 29 May 06:12:12 06:14:27 13° 273° (W) 06:16:43
NOAA 15 29 May 06:13:53 06:15:27 11° 85° (E) 06:17:01 137.62
STARS 29 May 06:15:04 06:17:42 15° 270° (W) 06:20:21 437.465
Cosmos 2491 29 May 06:22:28 06:30:50 46° 290° (WNW) 06:39:16 435.465 / 435.565
STRAND 1 29 May 06:25:27 06:28:48 18° 57° (ENE) 06:32:09 437.568
NOAA 18 29 May 06:35:43 06:38:54 15° 88° (E) 06:42:03 137.9125
HORYU 2 29 May 06:55:28 06:59:54 70° 288° (WNW) 07:04:19 437.375
SO-50 29 May 06:57:31 07:00:20 15° 19° (NNE) 07:03:08 436.795
CUTE-I 29 May 07:08:20 07:12:41 25° 93° (E) 07:17:01 437.470
LilacSat-2 29 May 07:09:43 07:12:29 19° 92° (E) 07:15:15 437.200
Cosmos 2504 29 May 07:14:33 07:21:31 30° 278° (W) 07:28:46 435.465 / 435.565
AO-85 29 May 07:15:18 07:20:47 85° 127° (SE) 07:26:05 145.980
AO-7 29 May 07:16:02 07:23:37 40° 305° (NW) 07:31:13 29.400- 29.500
GONETS M04 29 May 07:20:52 07:25:25 15° 47° (NE) 07:29:57
CUBESAT XI-V 29 May 07:42:00 07:44:29 14° 273° (W) 07:47:00 437.345
NOAA 15 29 May 07:50:49 07:56:10 75° 104° (ESE) 08:01:26 137.62
AIST 1 29 May 07:50:52 07:53:54 18° 66° (ENE) 07:56:53
BRITE-PL 29 May 07:54:04 07:59:15 71° 101° (ESE) 08:03:59 437.365/2234.400
Cosmos 2499 29 May 07:57:51 08:02:34 15° 50° (NE) 08:07:23 435.465 / 435.565
Cubesat XI-IV 29 May 08:01:58 08:07:19 67° 103° (ESE) 08:12:39 437.490
STRAND 1 29 May 08:02:16 08:07:22 80° 257° (WSW) 08:12:32 437.568
GOMX 1 29 May 08:09:49 08:14:24 48° 98° (E) 08:18:39 467.674
NOAA 18 29 May 08:14:46 08:20:17 87° 287° (WNW) 08:25:47 137.9125
Cosmos 2491 29 May 08:27:36 08:30:36 12° 317° (NW) 08:33:37 435.465 / 435.565
PRISM 29 May 08:29:23 08:33:15 38° 68° (ENE) 08:37:09 437.425
HORYU 2 29 May 08:34:50 08:35:39 10° 306° (NW) 08:36:28 437.375
CANX-2 29 May 08:35:18 08:37:43 15° 89° (E) 08:40:07 2200.000
SO-50 29 May 08:37:30 08:42:04 43° 42° (NE) 08:46:29 436.795
HO-68 29 May 08:43:00 08:48:41 25° 91° (E) 08:54:20 435.675
LilacSat-2 29 May 08:43:25 08:46:57 38° 290° (WNW) 08:50:29 437.200
CUTE-I 29 May 08:47:49 08:53:03 54° 291° (WNW) 08:58:15 437.470
DOVE 4 29 May 08:49:36 08:53:58 56° 100° (E) 08:58:06 437.250
AO-85 29 May 08:57:22 09:01:53 26° 327° (NNW) 09:06:15 145.980
O/OREOS (USA 219) 29 May 08:58:14 08:59:02 10° 96° (E) 08:59:48 437.305
CUTE 1.7 + AOD 2 29 May 09:01:24 09:04:51 23° 93° (E) 09:08:18 437.475
CINEMA 3 29 May 09:07:07 09:10:40 26° 94° (E) 09:14:10 145.822/145.860
AO-7 29 May 09:10:39 09:14:10 13° 329° (NNW) 09:17:40 29.400- 29.500
GONETS M04 29 May 09:16:02 09:24:37 57° 73° (ENE) 09:33:08
COMPASS 1 29 May 09:16:37 09:19:33 18° 91° (E) 09:22:29 437.405
AAUSAT CUBESAT 2 29 May 09:17:40 09:20:08 15° 89° (E) 09:22:36 437.432
AIST 1 29 May 09:27:36 09:31:51 52° 266° (W) 09:36:03
NOAA 15 29 May 09:31:38 09:35:23 20° 303° (WNW) 09:39:06 137.62
BRITE-PL 29 May 09:33:33 09:37:06 19° 303° (WNW) 09:40:29 437.365/2234.400
Cubesat XI-IV 29 May 09:42:54 09:46:56 22° 302° (WNW) 09:50:59 437.490
CUBEBUG 2 29 May 09:44:15 09:47:30 22° 93° (E) 09:50:47 437.445
STRAND 1 29 May 09:45:40 09:47:23 12° 274° (W) 09:49:06 437.568
GOMX 1 29 May 09:48:30 09:52:10 23° 299° (WNW) 09:55:40 467.674
Cosmos 2499 29 May 09:49:22 09:57:48 58° 74° (ENE) 10:06:31 435.465 / 435.565
NOAA 18 29 May 09:56:48 10:00:12 17° 306° (NW) 10:03:38 137.9125
UNISAT 6 29 May 10:03:14 10:06:40 23° 64° (ENE) 10:10:04 437.425
PRISM 29 May 10:05:21 10:08:42 23° 266° (W) 10:12:04 437.425
FUNcube-1 29 May 10:07:54 10:10:47 18° 91° (E) 10:13:41 145.935
SEEDS 29 May 10:08:34 10:12:51 82° 104° (ESE) 10:17:07 437.485
UWE-3 29 May 10:08:37 10:12:12 27° 95° (E) 10:15:49 435.000/436.395/437.385
CANX-2 29 May 10:09:45 10:14:00 65° 287° (WNW) 10:18:16 2200.000
TIGRISAT 29 May 10:09:58 10:13:31 25° 65° (ENE) 10:17:02 435.000
AUBIESAT-1 29 May 10:11:21 10:14:42 84° 109° (ESE) 10:18:01 437.475
PCSat 29 May 10:12:10 10:17:14 42° 115° (ESE) 10:22:21 145.827
SO-50 29 May 10:18:14 10:22:28 33° 242° (WSW) 10:26:34 436.795
M-CUBED/EXP-1 PRIME 29 May 10:19:51 10:23:07 60° 293° (WNW) 10:26:20 437.505
DOVE 4 29 May 10:28:15 10:31:14 18° 300° (WNW) 10:34:09 437.250
HO-68 29 May 10:29:56 10:37:07 76° 291° (WNW) 10:44:16 435.675
CUTE-I 29 May 10:30:56 10:31:58 11° 311° (NW) 10:33:02 437.470
O/OREOS (USA 219) 29 May 10:33:05 10:37:38 83° 114° (ESE) 10:42:12 437.305
CUTE 1.7 + AOD 2 29 May 10:36:50 10:40:51 40° 291° (WNW) 10:44:51 437.475
AO-85 29 May 10:41:40 10:44:06 13° 350° (N) 10:46:28 145.980
JAS-2 29 May 10:43:08 10:44:48 11° 37° (NE) 10:46:28 435.910
ANTELSAT 29 May 10:43:25 10:47:39 55° 71° (ENE) 10:51:50 437.575/2403.000
CINEMA 3 29 May 10:44:08 10:47:53 32° 292° (WNW) 10:51:34 145.822/145.860
Oscar 11 29 May 10:48:06 10:52:23 53° 99° (E) 10:56:38 145.826/435.025
COMPASS 1 29 May 10:51:18 10:55:24 50° 289° (WNW) 10:59:29 437.405
AAUSAT CUBESAT 2 29 May 10:51:52 10:56:01 60° 287° (WNW) 11:00:09 437.432
HUMSAT D 29 May 10:58:29 11:01:11 17° 91° (E) 11:03:54 437.325/437.525
POPSAT HIP 1 29 May 11:00:42 11:03:39 19° 62° (ENE) 11:06:35 437.405
QB50P1 29 May 11:00:51 11:03:50 19° 62° (ENE) 11:06:49 145.935-145.965
QB50P2 29 May 11:03:38 11:06:48 21° 63° (ENE) 11:09:58 145.880/145.840
DELFI C3 29 May 11:05:59 11:09:49 39° 98° (E) 11:13:37 145.870
POLYITAN 1 29 May 11:06:05 11:09:16 21° 63° (ENE) 11:12:28 437.675
ZACube-1 29 May 11:06:06 11:10:18 73° 103° (ESE) 11:14:33 437.345
BEESAT 3 29 May 11:12:39 11:14:37 13° 111° (ESE) 11:16:36 437.485
GONETS M04 29 May 11:13:23 11:21:07 38° 276° (W) 11:28:49
NANOSAT C BR1 29 May 11:17:33 11:21:01 25° 65° (ENE) 11:24:30 145.865
CUBEBUG 2 29 May 11:20:24 11:24:19 40° 290° (WNW) 11:28:14 437.445
CUSAT 1 29 May 11:22:50 11:28:22 26° 81° (E) 11:34:31 437.405
DANDE 29 May 11:36:58 11:40:27 15° 73° (ENE) 11:44:20 436.750
UNISAT 6 29 May 11:39:05 11:43:12 41° 262° (W) 11:47:17 437.425
Cosmos 2499 29 May 11:42:57 11:50:39 39° 275° (W) 11:58:35 435.465 / 435.565
FUNcube-1 29 May 11:43:15 11:47:19 50° 289° (WNW) 11:51:25 145.935
UWE-3 29 May 11:44:59 11:48:42 32° 293° (WNW) 11:52:28 435.000/436.395/437.385
SEEDS 29 May 11:45:56 11:47:58 13° 301° (WNW) 11:50:00 437.485
TIGRISAT 29 May 11:46:04 11:50:05 37° 263° (W) 11:54:05 435.000
DUCHIFAT 1 29 May 11:54:24 11:58:30 54° 71° (ENE) 12:02:37 145.980
PCSat 29 May 11:55:37 12:00:42 40° 315° (NW) 12:05:50 145.827
AISAT 29 May 12:01:26 12:02:32 11° 87° (E) 12:03:38 437.250
BUGSAT 1 29 May 12:04:34 12:08:23 35° 68° (ENE) 12:12:10 437.445
O/OREOS (USA 219) 29 May 12:14:42 12:17:41 17° 315° (NW) 12:20:38 437.305
BEESAT 2 29 May 12:17:26 12:21:02 34° 119° (ESE) 12:24:40 435.950
HO-68 29 May 12:18:53 12:23:46 20° 312° (NW) 12:28:39 435.675
JAS-2 29 May 12:20:50 12:27:37 37° 59° (ENE) 12:34:38 435.910
ANTELSAT 29 May 12:21:52 12:24:43 17° 269° (W) 12:27:33 437.575/2403.000
AO-85 29 May 12:23:55 12:26:43 15° 16° (NNE) 12:29:23 145.980
Oscar 11 29 May 12:25:03 12:28:10 20° 298° (WNW) 12:31:18 145.826/435.025
HUMSAT D 29 May 12:33:05 12:37:09 53° 288° (WNW) 12:41:14 437.325/437.525
POPSAT HIP 1 29 May 12:34:56 12:39:04 53° 259° (W) 12:43:14 437.405
QB50P1 29 May 12:35:08 12:39:16 52° 260° (W) 12:43:25 145.935-145.965
QB50P2 29 May 12:38:15 12:42:20 46° 261° (W) 12:46:26 145.880/145.840
Oscar 19 29 May 12:39:44 12:43:19 19° 57° (ENE) 12:46:55 437.125/150
POLYITAN 1 29 May 12:40:45 12:44:49 45° 261° (W) 12:48:53 437.675
DELFI C3 29 May 12:41:20 12:44:28 22° 296° (WNW) 12:47:36 145.870
ZACube-1 29 May 12:43:50 12:46:06 14° 300° (WNW) 12:48:22 437.345
ESTCUBE 1 29 May 12:45:24 12:49:44 42° 98° (E) 12:54:02 437.505/2401.250
CUBEBUG 1 29 May 12:46:48 12:50:42 30° 95° (E) 12:54:32 437.445
DX 1 29 May 12:46:59 12:50:35 24° 94° (E) 12:54:08 434.975-435.025
BEESAT 3 29 May 12:47:50 12:51:46 75° 308° (NW) 12:55:45 437.485
50 SAT 29 May 12:48:41 12:52:05 32° 97° (E) 12:55:28 437.505
AO-7 29 May 12:50:31 12:51:55 10° 25° (NNE) 12:53:19 29.400- 29.500
NANOSAT C BR1 29 May 12:52:43 12:56:37 36° 262° (W) 13:00:33 145.865
VELOX 1 29 May 12:59:00 13:03:10 38° 98° (E) 13:07:16 145.980
CUSAT 1 29 May 13:02:46 13:09:35 77° 284° (WNW) 13:17:38 437.405
SPROUT 29 May 13:04:57 13:08:04 19° 92° (E) 13:11:11 437.525
DANDE 29 May 13:15:41 13:21:38 75° 97° (E) 13:29:18 436.750
Gurwin Techsat 1B 29 May 13:18:40 13:22:20 19° 57° (ENE) 13:26:00 435.225
ITAMSAT 1 29 May 13:29:08 13:29:50 10° 49° (NE) 13:30:33 435.822/435.867
DUCHIFAT 1 29 May 13:31:48 13:34:32 17° 269° (W) 13:37:17 145.980
UKube-1 29 May 13:31:57 13:36:13 56° 101° (E) 13:40:27 .
AISAT 29 May 13:35:14 13:39:42 90° 288° (WNW) 13:44:06 437.250
BUGSAT 1 29 May 13:40:19 13:43:49 25° 266° (W) 13:47:18 437.445
PCSat 29 May 13:42:47 13:45:40 14° 339° (NNW) 13:48:33 145.827
BEESAT 2 29 May 13:55:15 13:58:53 33° 318° (NW) 14:02:34 435.950
AO-85 29 May 14:04:04 14:08:38 37° 40° (NE) 14:12:47 145.980
JAS-2 29 May 14:04:46 14:12:13 63° 260° (W) 14:20:04 435.910
Oscar 19 29 May 14:16:53 14:22:05 76° 257° (WSW) 14:27:19 437.125/150
ESTCUBE 1 29 May 14:22:37 14:26:22 26° 296° (WNW) 14:30:06 437.505/2401.250
50 SAT 29 May 14:22:43 14:25:41 23° 295° (WNW) 14:28:37 437.505
DX 1 29 May 14:22:50 14:26:54 39° 292° (WNW) 14:30:56 434.975-435.025
CUBEBUG 1 29 May 14:23:05 14:26:59 32° 294° (WNW) 14:30:50 437.445
BEESAT 3 29 May 14:27:37 14:30:08 16° 330° (NNW) 14:32:41 437.485
Cosmos 2491 29 May 14:31:01 14:38:31 30° 62° (ENE) 14:45:55 435.465 / 435.565
AO-7 29 May 14:35:06 14:42:03 31° 50° (NE) 14:49:01 29.400- 29.500
VELOX 1 29 May 14:35:47 14:39:29 27° 296° (WNW) 14:43:10 145.980
SPROUT 29 May 14:40:11 14:44:17 47° 290° (WNW) 14:48:21 437.525
AIST 2 29 May 14:43:36 14:47:43 71° 124° (SE) 14:51:52 435.215
CUSAT 1 29 May 14:47:56 14:53:14 21° 307° (NW) 14:58:59 437.405
TISAT 1 29 May 14:56:19 15:00:31 78° 102° (ESE) 15:04:41 437.305
Gurwin Techsat 1B 29 May 14:56:23 15:01:42 78° 256° (WSW) 15:07:04 435.225
DANDE 29 May 15:00:10 15:05:30 27° 303° (WNW) 15:11:51 436.750
SWISSCUBE 29 May 15:02:43 15:06:28 22° 92° (E) 15:10:11 437.505
ITAMSAT 1 29 May 15:03:11 15:08:13 55° 69° (ENE) 15:13:18 435.822/435.867
UKube-1 29 May 15:08:51 15:11:53 19° 300° (WNW) 15:14:55 .
ITUPSAT 1 29 May 15:09:59 15:13:49 23° 93° (E) 15:17:37 437.325
AISAT 29 May 15:13:29 15:15:30 13° 304° (NW) 15:17:32 437.250
PCSat 29 May 15:30:16 15:31:36 11° 6° (N) 15:32:55 145.827
BEESAT 29 May 15:31:44 15:36:09 36° 97° (E) 15:40:34 436.000
BEESAT 2 29 May 15:37:02 15:37:55 11° 341° (NNW) 15:38:47 435.950
AO-85 29 May 15:44:45 15:49:09 39° 242° (WSW) 15:53:09 145.980
JAS-2 29 May 15:55:13 15:58:48 14° 281° (W) 16:02:29 435.910
Oscar 19 29 May 16:00:47 16:02:17 11° 275° (W) 16:03:48 437.125/150
HORYU 2 29 May 16:21:41 16:25:05 22° 62° (ENE) 16:28:30 437.375
AIST 2 29 May 16:23:22 16:26:38 22° 326° (NW) 16:29:54 435.215
MOZHAYETS 4 29 May 16:24:43 16:27:15 14° 88° (E) 16:29:46
AO-7 29 May 16:25:47 16:34:06 80° 252° (WSW) 16:42:30 29.400- 29.500
Cosmos 2491 29 May 16:27:31 16:36:16 74° 266° (W) 16:44:55 435.465 / 435.565
YUBILEINY 29 May 16:31:07 16:39:19 49° 88° (E) 16:47:33 435.215
TISAT 1 29 May 16:33:33 16:35:37 14° 302° (WNW) 16:37:40 437.305
SWISSCUBE 29 May 16:39:53 16:44:33 51° 291° (WNW) 16:49:11 437.505
Gurwin Techsat 1B 29 May 16:40:39 16:42:32 12° 275° (W) 16:44:26 435.225
RS-15 29 May 16:43:14 16:52:07 28° 101° (E) 17:01:16 29.354- 29.394
ITAMSAT 1 29 May 16:43:56 16:48:01 23° 268° (W) 16:52:09 435.822/435.867
ITUPSAT 1 29 May 16:47:16 16:51:55 49° 291° (WNW) 16:56:33 437.325
CUTE-I 29 May 16:58:31 16:59:51 11° 49° (NE) 17:01:12 437.470
BEESAT 29 May 17:09:40 17:13:53 32° 295° (WNW) 17:18:06 436.000
PCSat 29 May 17:13:06 17:17:13 21° 32° (NNE) 17:21:18 145.827
